Total_Precipitation_Accumulation
1.95 1.49 2.45 2.39 2.15 1.87 1.68 1.71 1.78 1.81 1.85 1.77 1.69 1.54 1.40 1.29 1.11 1.00 0.93 0.86 0.85 0.91 1.02 1.07 1.00 0.97 0.86 0.82 0.84 0.89 0.90 0.87 0.87 0.76 0.71 0.72 0.76 0.87 1.06 1.21 1.44 1.85 1.47
1.34 1.25 2.17 2.41 2.19 1.98 1.88 1.82 1.77 1.80 1.83 1.66 1.54 1.47 1.32 1.17 1.03 0.95 0.90 0.88 0.84 0.81 0.88 0.96 0.97 0.99 0.97 0.92 1.00 1.05 0.99 0.93 0.99 0.96 0.99 1.04 0.93 0.92 0.96 1.13 1.54 1.81 1.39
1.15 1.11 1.63 2.31 2.22 2.07 2.04 1.92 1.82 1.77 1.65 1.48 1.41 1.26 1.15 1.04 0.95 0.87 0.87 0.90 0.88 0.78 0.78 0.87 0.94 0.99 0.99 1.04 1.08 1.11 1.10 1.08 1.08 1.10 1.47 1.95 1.48 1.15 1.12 1.15 1.23 1.25 1.24
0.93 0.97 1.25 1.88 1.91 1.87 1.87 1.76 1.70 1.55 1.40 1.43 1.42 1.23 1.09 1.01 0.96 0.95 0.94 0.88 0.84 0.77 0.79 0.84 0.93 1.01 1.04 1.05 1.01 1.00 1.03 1.08 1.18 1.17 1.53 1.98 1.93 1.53 1.36 1.33 1.19 1.15 1.25
0.77 0.92 1.36 1.78 1.75 1.75 1.71 1.55 1.54 1.39 1.23 1.23 1.28 1.22 1.16 1.05 0.97 0.94 0.94 0.94 0.89 0.85 0.84 0.84 0.90 0.97 1.04 1.07 1.03 0.98 1.00 1.22 1.20 1.09 1.34 1.69 2.12 1.77 1.43 1.41 1.29 1.25 1.33
0.88 0.90 1.14 1.50 1.55 1.58 1.48 1.40 1.38 1.27 1.22 1.14 1.09 1.13 1.14 1.07 1.01 0.94 0.99 0.96 0.91 0.90 0.92 0.94 0.99 1.02 1.01 1.03 1.03 1.09 1.16 1.21 1.07 1.21 1.41 1.64 1.95 1.73 1.34 1.23 1.32 1.46 1.56
0.79 0.76 0.88 1.31 1.35 1.38 1.30 1.28 1.34 1.27 1.19 1.06 1.02 1.12 1.22 1.13 1.05 1.00 1.02 0.98 0.94 0.91 0.92 0.96 1.01 1.03 0.94 0.97 1.02 1.06 1.16 1.12 1.13 1.32 1.41 1.60 1.61 1.55 1.29 1.18 1.33 1.46 1.57
0.92 0.81 0.82 1.22 1.29 1.24 1.22 1.19 1.24 1.30 1.20 1.07 1.03 1.05 1.09 1.07 0.99 0.98 0.96 0.98 0.96 0.93 0.94 0.95 0.99 0.98 0.87 0.89 0.92 0.99 1.12 1.04 0.98 1.15 1.30 1.54 1.67 1.56 1.22 1.13 1.20 1.34 1.51
1.25 1.14 1.05 1.10 1.12 1.18 1.22 1.17 1.32 1.44 1.31 1.14 1.04 1.02 0.96 0.94 0.89 0.89 0.89 0.98 0.97 0.96 0.93 0.92 0.99 1.00 0.92 0.87 0.90 1.02 1.18 1.08 0.91 1.08 1.10 1.47 1.76 1.60 1.30 1.15 1.16 1.33 1.45
1.22 1.17 1.19 1.25 1.24 1.24 1.26 1.36 1.51 1.82 1.70 1.32 1.09 0.96 0.90 0.82 0.81 0.87 0.83 0.89 1.00 1.05 1.08 1.07 1.11 1.08 1.05 0.98 1.00 1.11 1.15 0.91 0.86 0.85 1.02 1.32 1.81 1.66 1.33 1.16 1.10 1.16 1.24
0.93 0.97 1.06 1.13 1.13 1.17 1.14 1.32 1.60 1.90 1.96 1.60 1.30 1.14 0.93 0.65 0.66 0.79 0.83 0.97 1.09 1.15 1.23 1.31 1.32 1.23 1.15 1.05 1.09 1.13 0.93 0.70 0.91 0.94 1.08 1.43 1.71 1.68 1.37 1.14 1.04 1.07 1.05
0.73 0.68 0.72 0.75 0.81 0.85 0.89 1.14 1.36 1.43 1.64 1.42 1.37 1.23 1.05 0.97 0.91 0.74 0.79 1.06 1.25 1.24 1.25 1.35 1.44 1.22 0.97 0.78 0.87 0.94 0.72 0.67 0.82 0.87 1.04 1.59 1.91 1.85 1.47 1.22 1.14 1.10 1.01
0.65 0.62 0.57 0.56 0.60 0.67 0.79 0.98 1.18 1.32 1.48 1.47 1.44 1.37 1.36 1.30 0.97 0.82 0.90 1.00 1.11 1.12 1.02 1.10 1.16 0.96 0.78 0.70 0.79 0.75 0.65 0.68 0.76 0.86 1.14 1.66 2.07 2.00 1.57 1.27 1.26 1.20 1.14
0.56 0.65 0.61 0.46 0.45 0.48 0.57 0.76 0.94 1.15 1.33 1.36 1.18 1.10 1.22 1.24 1.05 0.92 1.06 1.15 1.19 1.18 1.20 1.20 1.16 1.01 0.80 0.75 0.76 0.76 0.72 0.75 0.79 0.86 1.09 1.34 1.81 2.00 1.82 1.55 1.50 1.38 1.37
0.56 0.64 0.66 0.56 0.47 0.46 0.51 0.59 0.64 0.93 1.11 1.25 1.28 1.06 1.18 1.22 1.15 1.03 0.96 1.15 1.15 1.19 1.23 1.25 1.27 1.15 1.04 0.95 0.90 0.83 0.89 0.84 0.80 0.77 0.93 1.03 1.31 1.73 1.95 1.93 1.88 1.65 1.56
0.51 0.58 0.61 0.63 0.59 0.55 0.54 0.56 0.54 0.59 0.71 0.82 0.78 0.75 0.94 1.06 1.05 1.05 0.92 0.99 1.09 1.23 1.43 1.49 1.32 1.23 1.17 1.10 1.11 1.06 1.02 0.95 0.90 0.78 0.86 0.92 0.89 1.08 1.46 1.91 2.11 1.97 1.80
0.47 0.52 0.55 0.61 0.66 0.66 0.66 0.74 0.67 0.62 0.67 0.66 0.62 0.63 0.74 0.85 0.89 1.02 1.02 0.98 1.02 1.24 1.49 1.63 1.50 1.39 1.22 1.22 1.21 1.20 1.09 1.07 1.02 0.92 0.94 1.03 0.87 0.83 1.10 1.58 2.02 2.15 2.02
0.42 0.41 0.44 0.48 0.52 0.57 0.62 0.69 0.76 0.76 0.77 0.74 0.77 0.73 0.68 0.81 0.94 1.06 1.12 1.06 1.06 1.27 1.49 1.68 1.72 1.68 1.55 1.49 1.42 1.33 1.25 1.31 1.18 1.08 1.07 1.13 1.21 1.05 1.03 1.23 1.54 1.85 2.07
0.39 0.34 0.32 0.34 0.35 0.38 0.43 0.54 0.66 0.74 0.82 0.89 0.90 0.89 0.87 0.91 0.94 1.09 1.26 1.29 1.29 1.40 1.49 1.53 1.63 1.61 1.64 1.65 1.47 1.44 1.37 1.44 1.45 1.31 1.35 1.36 1.39 1.34 1.20 1.06 1.16 1.26 1.63
0.33 0.32 0.31 0.32 0.31 0.28 0.32 0.45 0.56 0.63 0.72 0.89 0.97 1.03 1.30 1.40 1.18 1.14 1.27 1.29 1.35 1.53 1.58 1.69 1.87 1.79 1.68 1.78 1.63 1.53 1.49 1.46 1.44 1.50 1.56 1.54 1.52 1.40 1.38 1.19 1.20 1.08 1.19
0.18 0.17 0.19 0.25 0.32 0.30 0.27 0.33 0.45 0.54 0.68 0.82 0.99 1.05 1.30 1.41 1.31 1.33 1.34 1.34 1.38 1.45 1.50 1.67 2.01 2.03 1.86 1.75 1.93 1.90 1.81 1.62 1.54 1.56 1.57 1.66 1.67 1.51 1.50 1.51 1.38 1.17 0.99
0.11 0.10 0.13 0.16 0.26 0.33 0.36 0.41 0.54 0.71 0.84 0.94 1.08 1.15 1.26 1.29 1.29 1.23 1.38 1.47 1.44 1.54 1.62 1.76 2.04 2.22 2.02 1.84 2.16 2.56 2.35 2.08 1.75 1.56 1.54 1.47 1.57 1.58 1.49 1.38 1.30 1.22 1.08
0.08 0.08 0.13 0.21 0.34 0.51 0.67 0.89 1.14 1.42 1.54 1.44 1.30 1.37 1.49 1.57 1.54 1.48 1.55 1.68 1.60 1.62 1.69 1.73 1.81 2.22 2.36 2.15 2.11 2.64 2.51 2.33 2.26 1.79 1.44 1.30 1.49 1.61 1.59 1.46 1.36 1.37 1.30
0.16 0.22 0.31 0.43 0.58 0.76 0.96 1.18 1.45 1.69 1.85 1.86 1.88 1.92 1.90 1.86 1.76 1.64 1.65 1.69 1.69 1.75 1.70 1.59 1.73 2.12 2.56 2.57 2.37 2.18 2.05 2.02 2.21 2.12 1.59 1.33 1.41 1.52 1.67 1.55 1.49 1.49 1.46
0.34 0.46 0.56 0.78 0.94 1.08 1.15 1.25 1.47 1.58 1.65 1.76 1.90 1.95 1.95 1.88 1.77 1.62 1.55 1.61 1.68 1.77 1.76 1.81 1.99 2.26 2.51 2.72 2.66 2.42 2.15 1.93 1.62 1.81 1.82 1.63 1.40 1.32 1.38 1.47 1.57 1.55 1.48
0.63 0.85 0.99 1.09 1.18 1.17 1.16 1.18 1.31 1.45 1.54 1.63 1.76 1.82 1.76 1.64 1.60 1.55 1.53 1.50 1.47 1.54 1.64 1.81 2.06 2.19 2.38 2.59 2.61 2.34 2.18 2.05 1.87 1.76 1.63 1.70 1.68 1.40 1.26 1.24 1.34 1.46 1.46